Wind_Speed
16 17 17 18 19 20 21 22 23 22 22 23 25 24 24 25 25 23 22 16 14 13 17 20 17 13 16 15 10 8 7 10 12 11 7 3 6 3 4 8 7 8 9 7 7
15 15 16 18 20 22 22 22 22 23 22 21 21 24 23 25 29 24 12 15 18 15 21 22 19 18 19 16 11 12 10 13 5 7 7 7 7 10 6 8 12 12 10 7 6
14 15 16 18 19 20 21 22 21 22 23 22 20 21 23 23 21 2 11 8 14 16 14 17 14 19 19 14 16 13 14 9 8 10 10 10 11 6 8 10 12 11 7 8 6
15 16 17 18 20 21 21 21 23 23 22 23 20 21 19 17 7 3 10 6 7 17 14 14 16 21 18 14 19 11 16 13 12 8 9 9 9 10 11 12 3 5 5 7 6
17 17 18 19 21 22 22 22 22 22 22 23 22 20 20 8 16 22 17 8 3 18 12 14 17 21 17 16 13 18 11 11 16 14 13 12 14 12 12 8 6 5 6 7 6
16 17 20 21 22 24 24 23 23 23 21 21 24 19 15 14 11 19 12 3 10 13 13 12 10 19 12 12 17 9 21 15 14 15 12 12 14 5 4 7 8 9 8 7 7
15 18 20 20 21 24 25 26 25 23 23 23 21 19 14 26 13 26 29 26 20 15 15 14 14 11 10 10 18 14 12 14 16 17 15 11 17 14 9 9 11 12 10 10 8
17 18 20 19 21 24 26 26 24 22 21 20 16 12 13 15 13 29 25 26 19 15 17 13 11 14 13 8 6 13 14 15 15 10 9 13 18 4 5 11 13 14 13 11 11
17 18 19 19 21 24 26 25 21 16 13 14 7 9 11 12 20 19 18 15 16 22 14 8 10 16 14 13 12 12 14 16 12 9 6 12 15 4 5 12 13 14 14 13 12
17 18 17 18 21 24 26 20 10 9 9 5 1 6 13 4 4 6 4 5 6 14 11 14 13 12 15 16 17 16 15 15 13 9 10 12 15 11 9 13 15 14 15 16 14
16 16 16 17 19 22 21 11 7 2 11 12 12 14 12 9 10 8 11 8 7 18 16 22 14 20 25 22 20 11 12 14 7 4 7 13 15 12 6 13 15 15 17 18 17
14 14 15 16 16 13 13 7 7 9 15 25 30 32 30 18 11 12 12 13 14 15 19 10 20 21 17 18 20 18 15 13 6 6 10 14 14 14 4 9 13 15 18 19 18
14 13 13 15 14 6 9 5 8 14 8 14 8 11 9 20 16 11 13 10 11 17 20 21 9 18 14 16 19 21 19 14 12 3 11 10 15 17 12 9 9 15 16 18 22
13 12 12 13 5 9 3 10 10 13 5 4 2 2 3 5 8 21 19 14 11 16 14 16 22 5 19 22 19 19 17 16 12 9 11 7 14 15 11 15 12 14 17 18 22
12 12 11 9 9 6 9 8 8 2 6 6 3 3 4 6 9 3 15 29 18 12 9 12 12 20 17 18 18 16 7 13 14 13 13 14 9 13 9 14 15 14 16 18 20
13 11 11 8 7 8 7 9 3 4 5 3 1 7 4 9 5 2 2 14 22 15 15 15 5 13 19 13 12 4 8 7 6 7 12 15 11 11 12 13 10 9 10 12 16
13 12 11 9 4 7 8 5 4 5 5 6 6 12 11 6 4 7 6 13 11 16 17 13 14 5 10 16 13 15 12 7 9 9 10 5 10 16 6 10 11 9 9 7 12
13 13 13 12 8 6 3 4 6 2 4 7 7 13 5 8 1 5 5 9 17 12 9 14 9 15 13 14 9 21 17 6 6 9 9 8 8 11 7 8 12 11 12 6 12
13 12 15 11 8 9 4 5 3 3 4 8 12 6 3 9 6 4 5 3 8 14 8 12 13 10 14 9 13 13 19 16 10 2 4 7 5 10 9 8 6 10 7 9 11
10 10 16 10 11 13 4 7 6 6 2 4 4 4 5 10 9 7 3 9 3 10 9 6 6 9 16 18 17 11 11 8 10 10 13 10 9 6 3 7 8 7 8 6 8
8 5 5 7 16 10 6 9 11 14 5 3 3 5 4 8 10 9 5 5 12 7 7 8 5 6 10 14 17 14 12 8 6 10 8 8 5 4 6 11 11 11 4 7 11
8 4 7 13 9 4 6 9 7 8 8 11 7 7 8 8 8 6 4 7 14 16 2 6 3 7 10 4 5 12 17 18 10 11 6 5 6 5 6 8 11 10 14 16 15
8 10 8 14 5 8 4 8 10 11 10 6 7 3 5 8 6 7 5 4 10 11 9 5 7 9 10 6 5 4 3 4 3 2 10 8 3 2 12 12 14 17 16 17 17
6 4 10 13 14 9 16 13 13 12 14 10 8 6 5 10 11 6 4 4 9 8 13 10 3 6 10 3 2 7 5 3 5 6 8 10 9 7 12 15 16 19 20 21 20
12 5 8 5 13 15 12 4 17 12 15 16 10 15 10 7 12 11 6 6 6 8 4 2 3 2 1 1 1 4 7 7 6 6 6 8 9 8 9 12 16 18 22 25 26
8 7 7 15 11 15 18 14 17 12 11 13 14 9 13 17 15 8 6 10 7 5 6 6 4 4 5 5 6 8 9 9 10 11 11 15 17 12 13 14 16 20 22 23 26
22 18 8 10 16 13 13 15 15 12 15 21 14 11 11 15 17 16 16 14 13 8 5 4 3 5 9 3 5 8 15 16 13 12 9 11 8 11 12 13 19 24 24 26 30
Wind_Direction
320 324 323 324 328 325 320 323 319 317 322 317 320 318 316 315 310 310 292 268 262 242 215 197 193 191 191 207 206 203 236 246 230 218 217 189 273 209 271 264 236 239 257 265 274
322 325 326 326 326 326 325 320 317 316 312 313 313 315 319 317 315 308 285 266 239 218 201 198 194 187 197 211 207 213 228 243 245 219 250 274 272 289 249 251 253 252 249 252 261
328 329 329 329 327 326 322 317 316 313 310 311 310 313 316 323 320 237 324 290 234 205 201 198 203 191 213 208 208 214 241 229 225 240 282 292 289 246 259 276 265 267 244 229 239
328 328 327 326 325 322 321 323 313 306 312 315 311 304 315 321 282 311 357 350 201 184 185 195 192 203 214 209 212 238 229 234 241 260 253 277 293 265 258 277 254 233 222 209 227
326 326 325 324 322 321 318 314 313 310 309 309 304 303 306 283 266 303 294 262 217 172 193 197 204 213 222 217 208 232 224 218 236 252 258 277 268 277 269 255 225 206 183 207 216
325 325 324 324 323 322 319 313 311 311 306 294 296 299 295 267 280 292 292 294 230 220 223 206 218 222 273 228 216 222 241 229 238 252 252 255 270 257 273 204 197 195 195 204 212
320 324 323 325 326 325 321 321 317 312 300 293 290 287 267 254 282 264 283 279 270 244 230 225 229 240 242 242 230 237 241 225 228 247 258 248 261 238 260 201 204 207 204 201 207
315 321 322 325 323 324 326 325 326 310 302 296 288 254 253 271 239 263 275 272 262 238 230 228 227 242 254 260 213 224 235 247 230 231 237 225 262 193 192 201 212 213 211 211 209
311 315 318 322 323 328 331 331 325 310 307 297 272 210 260 256 232 242 257 269 253 232 229 216 204 219 223 236 227 214 239 223 236 214 227 220 256 121 196 214 225 214 215 217 211
305 313 317 320 326 337 337 341 332 321 342 331 190 225 248 255 239 194 203 256 216 191 197 210 206 209 217 219 226 228 227 245 243 166 216 226 248 270 238 238 230 216 219 218 216
300 310 315 316 330 344 355 5 355 299 321 266 261 251 289 307 275 234 207 244 200 189 198 199 206 213 216 220 237 271 259 254 234 171 238 239 253 259 240 231 224 220 219 220 219
298 306 312 315 333 360 21 56 55 327 296 281 267 262 258 273 298 229 193 190 207 209 210 184 224 222 227 223 233 236 245 246 249 258 241 250 250 263 229 229 230 223 221 221 214
292 300 308 311 331 2 24 54 337 331 282 297 278 266 255 218 233 240 203 217 219 226 207 219 222 229 215 217 223 229 235 245 255 191 244 270 255 249 225 220 231 230 232 220 214
286 292 303 312 7 332 337 335 322 328 283 290 329 324 169 186 228 243 234 235 214 232 221 232 236 207 210 223 218 230 224 246 248 257 259 205 259 250 240 248 208 232 221 220 212
282 284 292 305 298 324 308 329 323 328 298 2 58 332 166 196 321 209 238 227 247 227 193 220 227 214 219 224 217 243 218 232 240 245 267 239 257 261 254 253 247 234 216 218 213
276 276 285 303 291 299 334 337 321 238 256 331 6 337 276 238 258 276 345 201 227 252 231 255 217 228 225 216 217 225 186 195 214 233 243 244 237 263 245 240 256 235 206 211 210
275 270 267 270 262 302 336 331 221 236 15 348 331 326 318 295 219 204 184 192 198 207 228 224 221 197 231 216 215 219 200 209 217 210 236 215 209 244 264 261 267 260 251 165 202
273 265 260 253 247 263 330 210 230 74 289 338 320 320 353 355 53 213 181 206 225 224 218 221 215 209 186 207 183 202 192 205 220 218 228 153 223 245 270 295 276 249 265 233 196
272 273 266 257 228 208 186 205 253 231 308 327 317 326 13 16 319 301 199 259 238 205 219 204 234 178 196 185 198 194 225 234 263 226 257 209 208 265 238 263 235 239 241 231 202
272 279 267 239 194 187 202 233 217 224 297 320 295 2 339 352 2 1 9 16 319 239 224 229 239 205 196 197 210 218 174 184 214 228 233 233 242 255 210 254 296 250 238 280 280
259 261 248 179 183 192 217 224 212 237 232 274 277 301 310 333 337 345 11 67 3 332 232 254 260 140 164 202 205 202 211 233 249 235 247 244 211 231 296 9 338 316 300 319 324
226 233 233 185 185 200 215 225 215 224 232 240 269 265 278 307 306 312 327 318 349 338 228 206 284 183 164 103 338 210 221 220 225 198 230 281 237 112 24 350 342 335 323 318 323
225 228 244 193 209 217 217 226 229 219 217 210 235 250 285 272 280 250 284 4 8 344 359 357 221 211 225 213 213 208 145 159 195 290 240 231 214 342 312 317 322 319 321 321 328
231 219 210 218 237 248 214 229 216 223 235 223 241 232 264 258 241 269 278 318 348 2 319 307 206 243 226 223 134 178 152 140 219 214 243 242 275 289 295 301 296 297 309 310 315
219 226 216 193 224 234 237 248 221 216 217 219 235 235 231 259 235 239 260 302 320 7 317 333 234 241 137 116 253 202 199 189 212 237 233 255 250 262 267 277 298 311 305 307 308
214 207 226 247 227 205 220 233 243 236 215 216 228 209 221 233 250 278 289 290 297 326 342 344 236 241 257 264 247 259 253 249 242 241 250 250 259 264 289 288 302 307 310 313 304
224 233 227 241 228 236 222 225 238 246 238 236 226 219 221 239 258 271 281 269 264 277 315 309 231 202 252 307 292 263 237 236 240 238 247 269 293 325 303 300 304 302 303 308 310
Height
1532 1530 1527 1526 1523 1521 1519 1516 1515 1514 1511 1510 1508 1505 1502 1499 1495 1492 1489 1489 1489 1487 1491 1491 1493 1495 1500 1499 1498 1496 1489 1483 1479 1483 1478 1484 1483 1483 1485 1485 1487 1486 1483 1483 1481
1530 1528 1527 1524 1521 1518 1515 1513 1511 1510 1508 1506 1504 1503 1499 1496 1492 1485 1485 1482 1482 1484 1486 1487 1490 1493 1495 1494 1495 1489 1481 1476 1476 1479 1479 1479 1480 1479 1482 1479 1482 1483 1482 1480 1480
1527 1525 1523 1521 1518 1515 1512 1510 1508 1506 1505 1502 1500 1500 1499 1494 1489 1483 1480 1477 1477 1480 1486 1488 1489 1491 1490 1489 1488 1483 1477 1474 1480 1481 1481 1479 1478 1478 1476 1474 1476 1478 1479 1479 1479
1525 1524 1520 1517 1516 1512 1509 1506 1505 1504 1501 1500 1496 1496 1495 1493 1489 1481 1480 1477 1477 1478 1483 1486 1486 1488 1485 1483 1482 1481 1476 1476 1478 1480 1481 1479 1477 1474 1474 1473 1476 1477 1477 1478 1477
1523 1521 1518 1514 1512 1509 1506 1503 1501 1500 1497 1496 1495 1492 1491 1491 1484 1480 1479 1478 1479 1479 1484 1483 1483 1483 1478 1477 1480 1479 1471 1473 1478 1479 1479 1478 1475 1472 1471 1473 1475 1475 1475 1477 1477
1521 1518 1516 1512 1509 1506 1503 1499 1497 1495 1493 1491 1490 1489 1490 1489 1479 1478 1479 1477 1480 1481 1482 1480 1481 1481 1478 1476 1475 1472 1472 1470 1472 1474 1475 1476 1469 1474 1467 1470 1472 1473 1474 1474 1475
1518 1516 1514 1510 1506 1503 1499 1495 1493 1489 1487 1486 1486 1485 1484 1477 1475 1473 1475 1475 1477 1479 1479 1479 1480 1482 1477 1474 1474 1472 1472 1468 1467 1469 1468 1472 1466 1464 1463 1468 1469 1471 1471 1472 1473
1516 1514 1512 1506 1503 1499 1495 1492 1488 1483 1481 1480 1480 1480 1476 1469 1472 1470 1472 1470 1472 1474 1474 1476 1477 1479 1478 1472 1472 1470 1468 1464 1456 1461 1465 1470 1462 1453 1462 1465 1465 1467 1469 1470 1470
1515 1512 1509 1504 1500 1497 1491 1487 1483 1478 1477 1476 1476 1477 1469 1463 1463 1463 1464 1464 1466 1469 1471 1473 1475 1475 1475 1472 1467 1464 1460 1459 1455 1459 1459 1466 1456 1453 1461 1462 1460 1462 1465 1467 1468
1512 1510 1506 1501 1497 1494 1488 1483 1479 1476 1477 1475 1474 1479 1463 1462 1460 1458 1459 1462 1465 1466 1470 1471 1470 1466 1467 1463 1461 1457 1459 1453 1455 1453 1458 1455 1455 1451 1455 1458 1457 1457 1461 1463 1465
1508 1506 1502 1498 1495 1492 1486 1481 1484 1480 1478 1476 1468 1462 1458 1459 1456 1456 1457 1462 1464 1463 1459 1463 1461 1454 1450 1454 1454 1450 1453 1451 1446 1452 1456 1453 1449 1445 1447 1451 1452 1452 1455 1458 1461
1505 1502 1500 1497 1494 1492 1488 1486 1489 1490 1475 1464 1459 1456 1457 1463 1461 1455 1455 1461 1459 1454 1455 1459 1452 1445 1450 1451 1456 1455 1456 1452 1448 1455 1457 1446 1445 1439 1440 1443 1445 1447 1449 1452 1456
1502 1500 1497 1494 1492 1492 1490 1488 1487 1486 1480 1456 1454 1453 1452 1456 1455 1454 1455 1455 1453 1449 1448 1447 1440 1444 1449 1453 1456 1451 1454 1453 1454 1453 1452 1449 1445 1436 1433 1439 1441 1442 1443 1445 1449
1498 1497 1494 1492 1494 1491 1492 1487 1485 1484 1477 1453 1450 1451 1451 1451 1452 1449 1452 1454 1451 1447 1449 1444 1439 1444 1447 1447 1448 1449 1447 1453 1453 1457 1451 1442 1447 1426 1427 1427 1432 1434 1437 1439 1442
1494 1494 1492 1490 1491 1491 1491 1486 1483 1485 1458 1450 1449 1450 1451 1451 1448 1447 1447 1451 1447 1444 1447 1437 1439 1439 1443 1441 1442 1444 1444 1450 1449 1451 1450 1446 1450 1427 1421 1425 1421 1422 1428 1432 1436
1490 1490 1489 1491 1489 1488 1487 1484 1484 1476 1455 1452 1450 1449 1448 1445 1446 1444 1444 1446 1446 1444 1440 1433 1437 1438 1436 1438 1441 1442 1448 1449 1449 1447 1456 1442 1443 1425 1415 1417 1415 1416 1420 1426 1431
1487 1487 1486 1486 1488 1487 1485 1485 1476 1462 1453 1454 1452 1448 1444 1439 1438 1442 1441 1444 1438 1448 1440 1434 1434 1435 1436 1436 1439 1441 1447 1449 1451 1450 1450 1427 1439 1423 1412 1413 1414 1415 1416 1422 1426
1484 1483 1482 1483 1484 1486 1485 1482 1472 1458 1457 1456 1454 1446 1440 1437 1434 1434 1437 1441 1435 1434 1431 1436 1439 1432 1430 1429 1432 1435 1433 1434 1445 1441 1430 1433 1438 1418 1409 1411 1413 1413 1418 1420 1423
1480 1480 1477 1479 1480 1484 1486 1476 1456 1458 1462 1460 1452 1446 1441 1440 1438 1433 1433 1434 1431 1431 1432 1431 1428 1421 1425 1426 1428 1431 1436 1429 1434 1439 1436 1421 1421 1414 1409 1409 1410 1411 1413 1415 1418
1478 1476 1473 1474 1476 1480 1483 1471 1462 1462 1463 1462 1456 1453 1449 1446 1439 1433 1433 1435 1433 1427 1427 1422 1426 1419 1421 1425 1426 1424 1419 1437 1434 1443 1443 1421 1421 1417 1410 1408 1406 1406 1410 1411 1413
1476 1474 1470 1469 1473 1477 1471 1463 1461 1462 1464 1463 1459 1456 1454 1451 1447 1439 1437 1435 1435 1429 1427 1422 1422 1423 1421 1421 1418 1424 1422 1421 1416 1420 1427 1427 1418 1406 1408 1414 1415 1410 1410 1411 1413
1472 1471 1466 1467 1471 1468 1466 1462 1463 1459 1461 1462 1460 1458 1457 1455 1451 1446 1441 1436 1438 1431 1423 1422 1423 1421 1415 1417 1413 1409 1414 1416 1422 1425 1424 1428 1417 1407 1414 1416 1415 1413 1414 1413 1412
1466 1466 1464 1464 1462 1462 1461 1461 1459 1457 1457 1458 1456 1457 1455 1456 1455 1445 1439 1439 1440 1435 1433 1428 1419 1423 1420 1419 1418 1417 1420 1418 1421 1424 1422 1433 1421 1411 1413 1413 1414 1412 1411 1410 1408
1463 1459 1460 1460 1458 1455 1453 1454 1453 1455 1455 1456 1454 1457 1456 1453 1450 1446 1442 1440 1440 1440 1437 1431 1421 1417 1415 1413 1413 1425 1425 1425 1422 1426 1421 1421 1419 1419 1416 1413 1413 1412 1409 1407 1406
1457 1452 1449 1451 1452 1453 1452 1450 1444 1448 1453 1453 1452 1452 1452 1454 1446 1445 1442 1441 1440 1439 1435 1433 1432 1424 1421 1423 1423 1423 1423 1423 1425 1425 1430 1421 1422 1417 1416 1414 1411 1411 1409 1406 1403
1449 1449 1449 1445 1444 1447 1446 1447 1443 1446 1448 1447 1448 1447 1450 1450 1448 1442 1444 1445 1443 1440 1437 1434 1428 1426 1427 1424 1425 1425 1421 1419 1419 1420 1420 1418 1415 1411 1413 1413 1413 1412 1410 1408 1404
1444 1446 1447 1440 1440 1439 1437 1440 1440 1443 1443 1443 1445 1446 1448 1446 1448 1448 1449 1449 1447 1445 1444 1439 1432 1429 1426 1427 1425 1426 1417 1414 1412 1410 1412 1414 1409 1411 1414 1414 1414 1410 1409 1408 1403